Change the Weather History Date:

Monday, July 8, 2013

  Actual Average Record
Temperature  
Mean Temperature 77 °F -  
Max Temperature 86 °F 77 °F 97 °F (2007)
Min Temperature 68 °F 65 °F 53 °F (2000)
Cooling Degree Days 12    
Growing Degree Days 27 (Base 50)    
Moisture  
Dew Point 68 °F    
Average Humidity 81    
Maximum Humidity 94    
Minimum Humidity 59    
Precipitation  
Precipitation 0.25 in - - ()
Sea Level Pressure  
Sea Level Pressure 30.05 in    
Wind  
Wind Speed 8 mph (SW)    
Max Wind Speed 20 mph    
Max Gust Speed 24 mph    
Visibility 8 miles    
Events Rain    
Averages and records for this station are not official NWS values.
T = Trace of Precipitation, MM = Missing Value Source: NWS Daily Summary

Daily Weather History Graph

Daily Weather History Graph

Search for Another Location

Airport or City:

Trip Planner

Search our weather history database for the weather conditions in past years. The results will help you decide how hot, cold, wet, or windy it might be!

Date:

Astronomy

Jul. 08, 2013 Rise Set
Actual Time 6:00 AM EDT 9:02 PM EDT
Civil Twilight 5:27 AM EDT 9:35 PM EDT
Nautical Twilight 4:44 AM EDT 10:18 PM EDT
Astronomical Twilight 3:54 AM EDT 11:08 PM EDT
Moon 6:30 AM EDT (7/8) 9:02 PM EDT (7/8)
Length of Visible Light 16h 08m
Length of Day
15h 01m
New Moon, 0% of the Moon is Illuminated
Jul 8
New Moon
Jul 15
First Quarter
Jul 22
Full
Jul 29
Last Quarter
Aug 6
New

Hourly Weather History & Observations

Time (EDT) Temp. Heat Index Dew Point Humidity Pressure Visibility Wind Dir Wind Speed Gust Speed Precip Events Conditions
12:53 AM 72.0 °F - 64.0 °F 76% 30.04 in 10.0 mi WSW 10.4 mph - N/A   Mostly Cloudy
1:53 AM 70.0 °F - 63.0 °F 78% 30.04 in 10.0 mi SW 5.8 mph - N/A   Scattered Clouds
2:53 AM 70.0 °F - 63.0 °F 78% 30.04 in 10.0 mi SW 6.9 mph - N/A   Scattered Clouds
3:53 AM 68.0 °F - 63.0 °F 84% 30.03 in 10.0 mi SW 8.1 mph - N/A   Clear
4:53 AM 68.0 °F - 63.0 °F 84% 30.04 in 10.0 mi SSW 4.6 mph - N/A   Clear
5:53 AM 68.0 °F - 63.0 °F 84% 30.06 in 10.0 mi SSW 5.8 mph - N/A   Partly Cloudy
6:53 AM 68.0 °F - 63.0 °F 84% 30.06 in 9.0 mi SSW 5.8 mph - N/A   Clear
7:53 AM 71.1 °F - 64.0 °F 78% 30.06 in 10.0 mi South 8.1 mph - N/A   Clear
8:53 AM 71.1 °F - 66.0 °F 84% 30.07 in 10.0 mi SSW 9.2 mph - 0.00 in Rain Light Rain
9:53 AM 75.9 °F - 66.9 °F 74% 30.08 in 10.0 mi South 8.1 mph - N/A   Clear
10:53 AM 80.1 °F 82.9 °F 69.1 °F 69% 30.07 in 10.0 mi WSW 9.2 mph - N/A   Clear
11:53 AM 81.0 °F 84.4 °F 70.0 °F 69% 30.07 in 9.0 mi West 6.9 mph - N/A   Clear
12:53 PM 81.0 °F 85.2 °F 72.0 °F 74% 30.07 in 9.0 mi NW 5.8 mph - N/A   Partly Cloudy
1:53 PM 81.0 °F 85.2 °F 72.0 °F 74% 30.05 in 10.0 mi Variable 3.5 mph - N/A   Clear
2:53 PM 82.0 °F 86.7 °F 72.0 °F 71% 30.01 in 10.0 mi Calm Calm - N/A   Clear
3:53 PM 86.0 °F 90.7 °F 70.0 °F 59% 30.01 in 10.0 mi SSW 9.2 mph - N/A   Clear
4:53 PM 84.0 °F 87.8 °F 69.1 °F 61% 30.01 in 10.0 mi SW 12.7 mph 20.7 mph N/A   Scattered Clouds
5:53 PM 81.0 °F 84.9 °F 71.1 °F 72% 30.01 in 10.0 mi WSW 15.0 mph 23.0 mph N/A   Scattered Clouds
6:53 PM 77.0 °F - 66.9 °F 71% 30.02 in 10.0 mi South 4.6 mph - 0.00 in   Overcast
7:51 PM 73.4 °F - 69.8 °F 88% 30.06 in 1.8 mi WNW 19.6 mph 24.2 mph 0.09 in Rain Heavy Rain
7:53 PM 72.0 °F - 69.1 °F 91% 30.06 in 1.5 mi West 19.6 mph 24.2 mph 0.11 in Rain Heavy Rain
7:56 PM 71.6 °F - 69.8 °F 94% 30.07 in 4.0 mi West 17.3 mph - 0.03 in Rain Heavy Rain
8:05 PM 71.6 °F - 69.8 °F 94% 30.07 in 5.0 mi NNW 12.7 mph - 0.07 in Rain Light Rain
8:10 PM 71.6 °F - 69.8 °F 94% 30.07 in 7.0 mi NNW 9.2 mph - 0.07 in Rain Light Rain
8:30 PM 71.6 °F - 69.8 °F 94% 30.08 in 7.0 mi North 3.5 mph - 0.09 in Rain Light Rain
8:40 PM 71.6 °F - 68.0 °F 88% 30.07 in 6.0 mi North 3.5 mph - 0.10 in Rain Light Rain
8:53 PM 71.1 °F - 69.1 °F 93% 30.05 in 7.0 mi ENE 4.6 mph - 0.11 in Rain Light Rain
9:53 PM 72.0 °F - 70.0 °F 93% 30.05 in 9.0 mi SSE 3.5 mph - 0.01 in Rain Light Rain
10:53 PM 72.0 °F - 70.0 °F 93% 30.04 in 8.0 mi SE 9.2 mph - 0.02 in   Overcast
11:53 PM 70.0 °F - 68.0 °F 93% 30.04 in 10.0 mi SSE 9.2 mph - N/A   Overcast